Weather History for 40416 - June, 2013

Change the Weather History Date:

Sunday, June 23, 2013

  Actual Average Record
Temperature  
Mean Temperature 96 °F -  
Max Temperature 111 °F 108 °F - ()
Min Temperature 82 °F 83 °F - ()
Cooling Degree Days 32    
Growing Degree Days 46 (Base 50)    
Moisture  
Dew Point 42 °F    
Average Humidity 14    
Maximum Humidity 40    
Minimum Humidity 4    
Precipitation  
Precipitation 0.00 in 0.00 in - ()
Sea Level Pressure  
Sea Level Pressure 29.46 in    
Wind  
Wind Speed 12 mph ()    
Max Wind Speed 24 mph    
Max Gust Speed -    
Visibility 6.0 miles    
Events      
T = Trace of Precipitation, MM = Missing Value Source: Averaged Metar Reports

Daily Weather History Graph

Daily Weather History Graph

Search for Another Location

Airport or City:

Trip Planner

Search our weather history database for the weather conditions in past years. The results will help you decide how hot, cold, wet, or windy it might be!

Date:

Astronomy

Jun. 23, 2013 Rise Set
Actual Time 4:48 AM AST 6:35 PM AST
Civil Twilight 4:21 AM AST 7:01 PM AST
Nautical Twilight 3:50 AM AST 7:32 PM AST
Astronomical Twilight 3:17 AM AST 8:06 PM AST
Moon 6:32 PM AST (6/23) 4:34 AM AST (6/23)
Length of Visible Light 14h 39m
Length of Day
13h 47m
Full, 100% of the Moon is Illuminated
Jun 23
Full
Jun 23
Full
Jun 30
Last Quarter
Jul 8
New
Jul 16
First Quarter

Hourly Weather History & Observations

Time (AST) Temp. Heat Index Dew Point Humidity Pressure Visibility Wind Dir Wind Speed Gust Speed Precip Events Conditions
12:00 AM 89 °F - 34 °F 7% 29.46 in 6 mi WNW 8.1 mph - -  
12:00 AM 89.6 °F - 33.8 °F 14% 29.44 in - WNW 8.1 mph - N/A   Clear
1:00 AM 91.4 °F - 30.2 °F 11% 29.44 in - NW 11.5 mph - N/A   Clear
2:00 AM 89.6 °F - 37.4 °F 16% 29.44 in - NNW 9.2 mph - N/A   Clear
3:00 AM 86 °F - 41 °F 12% 29.44 in 6 mi North 11.5 mph - -  
3:00 AM 86.0 °F - 41.0 °F 20% 29.44 in - North 11.5 mph - N/A   Clear
4:00 AM 86.0 °F - 51.8 °F 31% 29.44 in - North 9.2 mph - N/A   Clear
5:00 AM 84.2 °F 83.5 °F 57.2 °F 40% 29.44 in - North 10.4 mph - N/A   Clear
6:00 AM 89 °F - 48 °F 15% 29.48 in 6 mi North 12.7 mph - -  
6:00 AM 89.6 °F - 48.2 °F 24% 29.47 in - North 12.7 mph - N/A   Clear
7:00 AM 98.6 °F - 51.8 °F 21% 29.47 in - North 15.0 mph - N/A   Clear
8:00 AM 102.2 °F - 48.2 °F 16% 29.47 in - North 19.6 mph - N/A   Clear
9:00 AM 104 °F - 57 °F 13% 29.50 in 6 mi North 23.0 mph - -  
9:00 AM 104.0 °F 103.4 °F 57.2 °F 21% 29.50 in - North 23.0 mph - N/A   Clear
10:00 AM 107.6 °F - 46.4 °F 13% 29.50 in - NNE 18.4 mph - N/A   Clear
11:00 AM 107.6 °F 108.2 °F 59.0 °F 20% 29.50 in - NNE 23.0 mph - N/A   Clear
12:00 PM 108 °F - 39 °F 5% 29.49 in 6 mi NNE 18.4 mph - -  
12:00 PM 107.6 °F - 39.2 °F 10% 29.47 in - NNE 18.4 mph - N/A   Clear
1:00 PM 109.4 °F - 44.6 °F 11% 29.47 in - North 23.0 mph - N/A   Clear
2:00 PM 109.4 °F - 37.4 °F 9% 29.47 in - North 20.7 mph - N/A   Clear
3:00 PM 109 °F - 37 °F 4% 29.47 in 6 mi NNE 24.2 mph - -  
3:00 PM 109.4 °F - 37.4 °F 9% 29.47 in - NNE 24.2 mph - N/A   Clear
4:00 PM 107.6 °F - 37.4 °F 9% 29.44 in - North 20.7 mph - N/A   Clear
5:00 PM 105.8 °F - 37.4 °F 10% 29.44 in - North 15.0 mph - N/A   Clear
6:00 PM 102 °F - 37 °F 5% 29.45 in 6 mi North 11.5 mph - -  
6:00 PM 102.2 °F - 37.4 °F 11% 29.44 in - North 11.5 mph - N/A   Clear
7:00 PM 98.6 °F - 39.2 °F 13% 29.44 in - North 10.4 mph - N/A   Clear
8:00 PM 96.8 °F - 35.6 °F 12% 29.44 in - North 9.2 mph - N/A   Clear
9:00 PM 95 °F - 36 °F 6% 29.47 in 6 mi NW 8.1 mph - -  
9:00 PM 95.0 °F - 35.6 °F 12% 29.44 in - NW 8.1 mph - N/A   Clear
10:00 PM 91.4 °F - 33.8 °F 13% 29.47 in - WNW 8.1 mph - N/A   Clear
11:00 PM 91.4 °F - 35.6 °F 14% 29.44 in - WNW 8.1 mph - N/A   Clear